Home > Time Zones > World Clock > Weather > U.S.A. > Bend > Past weeks

Flag for U.S.A. Weather past 2 weeks in Bend, Oregon, U.S.A.

Now
65 °F

Passing clouds.


Feels Like: 65 °F
Forecast: 44 / 60 °F
Wind: 35 mph from Southwest

Location: Roberts Field Airport

Current Time: Oct 25, 2014 at 2:25:31 PM

Latest Report: Oct 25, 2014 at 1:56 PM


Visibility: 10 mi

Pressure: 29.48 "Hg

Humidity: 33%

Dew point: 35 °F

Location of BendLocation

Historic Weather in Bend — Graph

°F

Bend temperature yesterday

Maximum temperature yesterday: 54 °F (at 3:56 PM)
Minimum temperature yesterday: 45 °F (at 7:56 AM)
Average temperature yesterday: 47 °F

Past Weeks' High & Low Weather Summary

 TemperatureHumidityPressure
High79 °F (Oct 13, 2:56 PM)97% (Oct 20, 9:56 PM)30.31 "Hg (Oct 20, 9:56 PM)
Low32 °F (Oct 13, 12:56 AM)10% (Oct 13, 2:56 PM)29.49 "Hg (Oct 25, 12:56 PM)
Average52 °F60%29.91 "Hg
* Reported Oct 10 12:56 PM — Oct 25 12:56 PM, Bend, Weather by CustomWeather, © 2014

Note: Actual official high and low records may vary slightly from our data, if they occured in-between our weather recording intervals... More about our weather records

Advertising

Bend weather history for previous 24 hours

 ConditionsComfort  
Time TempWeatherWind HumidityBarometerVisibility
12:56 PM
Oct 25
65 °FPassing clouds.25 mph33%29.49 "Hg10 mi
11:56 AM63 °FSunny.30 mph35%29.52 "Hg10 mi
10:56 AM62 °FScattered clouds.16 mph46%29.54 "Hg10 mi
9:56 AM59 °FSunny.21 mph49%29.55 "Hg10 mi
8:56 AM44 °FFog.3 mph96%29.60 "Hg5 mi
7:56 AM44 °FFog.3 mph96%29.62 "Hg1 mi
6:56 AM43 °FFog.No wind97%29.63 "Hg1 mi
5:56 AM44 °FFog.5 mph93%29.64 "Hg3 mi
5:04 AM44 °FFog.5 mph96%29.66 "Hg1 mi
4:56 AM44 °FFog.5 mph96%29.65 "Hg1 mi
3:56 AM45 °FFog.5 mph93%29.68 "Hg1 mi
2:56 AM45 °FFog.3 mph93%29.71 "Hg2 mi
1:56 AM45 °FFog.3 mph97%29.75 "Hg5 mi
12:56 AM45 °FFog.No wind97%29.78 "Hg2 mi
11:56 PM
Oct 24
45 °FFog.No wind97%29.81 "Hg1 mi
10:56 PM45 °FFog.3 mph97%29.83 "Hg0 mi
9:56 PM45 °FFog.5 mph97%29.84 "Hg1 mi
8:56 PM45 °FFog.6 mph97%29.86 "Hg1 mi
8:03 PM45 °FFog.6 mph97%29.86 "Hg1 mi
7:56 PM45 °FFog.6 mph97%29.87 "Hg1 mi
6:56 PM45 °FFog.12 mph97%29.87 "Hg1 mi
5:56 PM46 °FFog.13 mph93%29.88 "Hg1 mi
4:56 PM54 °FSunny.3 mph74%29.87 "Hg10 mi
3:56 PM54 °FPartly sunny.8 mph77%29.90 "Hg10 mi
2:56 PM51 °FOvercast.7 mph83%29.93 "Hg10 mi
Weather by CustomWeather, © 2014

See weather overviewHow to use our weather pages